Regional Weather Roundup
Issued by NWS

Home | Current Version | Previous Version | Text Only | Print | Product List | Glossary Off
Versions: 1 2 3 4 5 6 7 8 9 10 11 12 13 14 15 16 17 18 19 20 21 22 23 24 25 26 27 28

000
ASUS45 KPSR 241410
RWRAZ

ARIZONA HOURLY REGIONAL WEATHER ROUNDUP
NATIONAL WEATHER SERVICE PHOENIX AZ
700 AM MST WED AUG 24 2016

NOTE: FAIR INDICATES FEW OR NO CLOUDS BELOW 12,000 FEET WITH NO
SIGNIFICANT WEATHER AND/OR OBSTRUCTIONS TO VISIBILITY.

AZZ001>003-036-241500-
NORTHWEST ARIZONA

CITY           SKY/WX    TMP DP  RH WIND       PRES   REMARKS
BULLHEAD CITY  SUNNY     81  57  44 CALM      29.94R
KINGMAN        SUNNY     70  56  61 SE13      30.12R
$$

AZZ004>008-015-016-018-241500-
NORTH CENTRAL ARIZONA

CITY           SKY/WX    TMP DP  RH WIND       PRES   REMARKS
GRAND CANYON   SUNNY     49  46  90 CALM      30.34R
PRESCOTT       MOSUNNY   58  53  84 S7        30.25S
FLAGSTAFF      PTSUNNY   56  43  61 CALM      30.35R
PAYSON         PTSUNNY   63  50  63 CALM      30.27R
PAGE           MOSUNNY   68  53  58 S5        30.17S
$$

AZZ009>014-017-241500-
NORTHEAST ARIZONA

CITY           SKY/WX    TMP DP  RH WIND       PRES   REMARKS
WINSLOW        CLOUDY    59  52  77 N6        30.24R
SAINT JOHNS    SUNNY     55  51  86 S5        30.27S
WINDOW ROCK    MOSUNNY   56  50  80 CALM      30.31R
SHOW LOW       SUNNY     52  46  82 CALM      30.33R
$$

AZZ023-241500-
GREATER PHOENIX AREA

CITY           SKY/WX    TMP DP  RH WIND       PRES   REMARKS
PHOENIX        MOSUNNY   81  60  48 E6        29.99R
BUCKEYE        SUNNY     75  64  69 W6        30.01R
GLENDALE       MOSUNNY   81  55  41 N7        30.01R
LUKE AFB       SUNNY     79  58  49 N2        29.99R
DEER VALLEY    MOSUNNY   76  59  55 N3        30.01R
SCOTTSDALE     MOSUNNY   75  61  61 CALM      30.03R
MESA-FALCON    MOSUNNY  N/A N/A N/A N9        29.99R
MESA-GATEWAY   MOSUNNY   75  55  50 VRB6      30.02R
CHANDLER       MOSUNNY   79  61  53 N8        30.00R
$$

AZZ027-028-241500-
SOUTHWEST MARICOPA COUNTY AND PINAL COUNTY

CITY           SKY/WX    TMP DP  RH WIND       PRES   REMARKS
CASA GRANDE    SUNNY     77  54  44 CALM      30.03R
GILA BEND      SUNNY     81  55  40 NW1       29.97R
$$

AZZ503-504-507>509-241500-
SOUTHEAST ARIZONA

CITY           SKY/WX    TMP DP  RH WIND       PRES   REMARKS
TUCSON         SUNNY     73  52  47 VRB3      30.11R
DAVIS-MONTHAN  SUNNY     73  53  49 SE2       30.10R
RYAN FIELD     SUNNY     72  55  56 CALM      30.11R
NOGALES          N/A     63  49  60 CALM      30.20R
SIERRA VISTA   SUNNY     69  49  47 W3        30.23R
DOUGLAS        SUNNY     67  50  54 CALM      30.20R
SAFFORD        SUNNY     70  47  43 SE6       30.11R
$$

AZZ020-021-025-026-031-241500-
SOUTHWEST ARIZONA

CITY           SKY/WX    TMP DP  RH WIND       PRES   REMARKS
YUMA           CLEAR     82  74  76 S14       29.92R
$$

CAZ031-033-041-043-047-048-061-241500-
SOUTHERN CALIFORNIA

CITY           SKY/WX    TMP DP  RH WIND       PRES   REMARKS
DOWNTOWN L.A.  CLEAR     65  58  78 CALM      30.02S
L.A. AIRPORT   PTCLDY    66  59  78 CALM      30.03R
SAN DIEGO      MOCLDY    67  61  81 CALM      30.04S
BURBANK        CLEAR     67  56  67 CALM      30.03S
ONTARIO        PTCLDY    66  56  70 CALM      30.04R
RIVERSIDE      CLEAR     65  56  72 CALM      30.04R
PALM SPRINGS   CLEAR     82  50  32 CALM      29.93R
EL CENTRO NAS  CLEAR     76  48  37 E3        29.91R
IMPERIAL       CLEAR     82  45  27 SE5       29.89R
BLYTHE         CLEAR     80  55  42 N3        29.91R
NEEDLES        SUNNY     82  61  48 SW5       29.94R
$$

NVZ020-UTZ003-241500-
SOUTHERN NEVADA-UTAH

CITY           SKY/WX    TMP DP  RH WIND       PRES   REMARKS
LAS VEGAS      CLEAR     78  55  44 SW3       30.00R
SALT LAKE CITY MOSUNNY   64  30  27 SE7       30.14R
$$

NMZ009-TXZ055-241500-
NEW MEXICO-WEST TEXAS

CITY           SKY/WX    TMP DP  RH WIND       PRES   REMARKS
ALBUQUERQUE    CLOUDY    59  50  72 CALM      30.25R
EL PASO        PTSUNNY   69  64  84 SE5       30.15R
$$


........................KEY........................
SKY/WX - SKY CONDITION/WEATHER
TMP    - TEMPERATURE IN FAHRENHEIT
DP     - DEW POINT IN FAHRENHEIT
RH     - RELATIVE HUMIDITY IN PERCENT
WIND   - DIRECTION AND SPEED IN MILES PER HOUR (MPH)
VRB    - VARIABLE WIND DIRECTION
PRES   - MEAN SEA LEVEL PRESSURE IN INCHES OF MERCURY
         F - FALLING PRESSURE   R - RISING PRESSURE
         S - STEADY PRESSURE
VSB    - VISIBILITY IN MILES
HX     - HEAT INDEX IN FAHRENHEIT
WCI    - WIND CHILL INDEX IN FAHRENHEIT
TC     - TEMPERATURE IN CELSIUS WHICH IS ALSO KNOWN AS
         TEMPERATURE IN CENTIGRADE
AFB    - AIR FORCE BASE
         LUKE AFB IS LUKE AIR FORCE BASE
         DAVIS-MONTHAN IS DAVIS-MONTHAN AIR FORCE BASE
NAS    - NAVAL AIR STATION
         EL CENTRO NAS IS EL CENTRO NAVAL AIR STATION
N/A    - NOT AVAILABLE





USA.gov is the U.S. government's official web portal to all federal, state and local government web resources and services.